TimeEST,TemperatureF,Dew PointF,Humidity,Sea Level PressureIn,VisibilityMPH,Wind Direction,Wind SpeedMPH,Gust SpeedMPH,PrecipitationIn,Events,Conditions,WindDirDegrees,DateUTC
12:56 AM,41.0,26.1,55,30.25,10.0,NW,8.1,-,N/A,,Clear,320,2013-03-09 05:56:00
1:56 AM,39.9,26.1,58,30.26,10.0,WNW,9.2,-,N/A,,Clear,300,2013-03-09 06:56:00
2:56 AM,39.9,26.1,58,30.25,10.0,NW,10.4,19.6,N/A,,Clear,320,2013-03-09 07:56:00
3:56 AM,39.9,26.1,58,30.25,10.0,NNW,10.4,-,N/A,,Clear,330,2013-03-09 08:56:00
4:56 AM,39.0,26.1,60,30.26,10.0,NNW,9.2,-,N/A,,Clear,340,2013-03-09 09:56:00
5:56 AM,37.9,26.1,62,30.27,10.0,NNW,9.2,-,N/A,,Clear,340,2013-03-09 10:56:00
6:56 AM,37.9,26.1,62,30.29,10.0,NNW,6.9,-,N/A,,Clear,340,2013-03-09 11:56:00
7:56 AM,42.1,26.1,53,30.30,8.0,North,15.0,19.6,N/A,,Clear,360,2013-03-09 12:56:00
8:56 AM,45.0,26.1,48,30.31,10.0,North,10.4,-,N/A,,Clear,10,2013-03-09 13:56:00
9:56 AM,51.1,25.0,36,30.30,10.0,North,8.1,17.3,N/A,,Clear,350,2013-03-09 14:56:00
10:56 AM,55.0,27.0,34,30.30,10.0,North,11.5,19.6,N/A,,Clear,360,2013-03-09 15:56:00
11:56 AM,57.9,28.9,33,30.29,10.0,North,12.7,21.9,N/A,,Clear,10,2013-03-09 16:56:00
12:07 PM,-9999,-9999,N/A,-9999,-9999.0,North,-9999.0,-,N/A,,Unknown,0,2013-03-09 17:07:00
12:56 PM,60.1,30.0,32,30.28,10.0,NNW,15.0,19.6,N/A,,Clear,330,2013-03-09 17:56:00
1:56 PM,62.1,30.0,30,30.25,10.0,North,11.5,19.6,N/A,,Clear,10,2013-03-09 18:56:00
2:56 PM,62.1,30.0,30,30.25,10.0,North,10.4,17.3,N/A,,Clear,360,2013-03-09 19:56:00
3:56 PM,62.1,30.0,30,30.25,10.0,NNW,9.2,-,N/A,,Clear,330,2013-03-09 20:56:00
4:56 PM,62.1,30.0,30,30.24,10.0,North,8.1,-,N/A,,Clear,360,2013-03-09 21:56:00
5:56 PM,59.0,30.9,35,30.27,10.0,North,5.8,-,N/A,,Clear,350,2013-03-09 22:56:00
6:56 PM,54.0,30.0,40,30.28,10.0,NNW,3.5,-,N/A,,Clear,330,2013-03-09 23:56:00
7:56 PM,46.9,37.0,68,30.29,10.0,Calm,Calm,-,N/A,,Clear,0,2013-03-10 00:56:00
8:56 PM,44.1,36.0,73,30.30,10.0,Calm,Calm,-,N/A,,Clear,0,2013-03-10 01:56:00
9:56 PM,42.1,35.1,76,30.31,10.0,Calm,Calm,-,N/A,,Clear,0,2013-03-10 02:56:00
10:56 PM,39.9,35.1,83,30.31,10.0,Calm,Calm,-,N/A,,Clear,0,2013-03-10 03:56:00
11:56 PM,37.9,34.0,86,30.30,10.0,Calm,Calm,-,N/A,,Clear,0,2013-03-10 04:56:00